Location: Vanderbilt Beach
(26.2700°N, 81.7900°W)
Time: 22:18:01
(UTC-04:00)

Envisat - Pass Details

Date: 17 June 2021
Orbit: 764 x 766 km, 98.2° (Epoch: 02 August)

Event Time Altitude Azimuth Distance (km) Brightness Sun altitude
Rises 05:24:38 0° 43° (NE) 3,229 8.0 -14.3°
Reaches altitude 10° 05:28:55 10° 78° (ENE) 2,298 6.6 -13.5°
Maximum altitude 05:30:19 11° 94° (E) 2,221 6.2 -13.2°
Drops below altitude 10° 05:31:43 10° 110° (ESE) 2,294 6.0 -13.0°
Sets 05:35:57 0° 145° (SE) 3,215 6.2 -12.2°
